Regional Weather Roundup
Issued by NWS

Home | Current Version | Previous Version | Text Only | Print | Product List | Glossary Off
Versions: 1 2 3 4 5 6 7 8 9 10 11 12 13 14 15 16 17 18 19 20 21 22 23 24 25 26 27 28 29 30 31 32 33 34 35 36 37 38 39 40 41 42 43 44 45 46 47 48 49 50

000
ASUS43 KMPX 250701
RWRMN
WEATHER ROUNDUP FOR MINNESOTA
NATIONAL WEATHER SERVICE TWIN CITIES/CHANHASSEN MN
200 AM CDT SAT OCT 25 2014


NOTE: "FAIR" INDICATES FEW OR NO CLOUDS BELOW 12,000 FEET WITH NO
SIGNIFICANT WEATHER AND/OR OBSTRUCTIONS TO VISIBILITY. N/A MEANS
CURRENT SKY AND/OR WEATHER CONDITIONS ARE NOT AVAILABLE.

MNZ060>063-068>070-250800-
   Twin Cities Metro

CITY           SKY/WX    TMP DP  RH WIND       PRES   REMARKS
TWIN CITIES    MOCLDY    60  41  49 NW12      29.92R
ST PAUL        PTCLDY    57  44  62 NW10      29.92R
CRYSTAL        MOCLDY    60  41  49 W9        29.92R
BLAINE         PTCLDY    57  43  58 W9        29.92R
LAKEVILLE      PTCLDY    55  45  67 W7        29.93R
EDEN PRAIRIE   MOCLDY    61  41  47 NW10      29.92R
SOUTH ST PAUL  PTCLDY    61  41  47 NW12      29.91R
LAKE ELMO      FAIR      59  43  55 NW9       29.92R
$$
MNZ001>005-007-008-013>017-022>024-027-028-250800-
   Northwest Minnesota

CITY           SKY/WX    TMP DP  RH WIND       PRES   REMARKS
BEMIDJI        CLEAR     50  32  50 W15G23    29.90R
HALLOCK        CLEAR     48  32  53 NW13      29.90R
ROSEAU         CLEAR     48  34  57 W12G17    29.85R
WARROAD        CLEAR     46  36  66 W12       29.83R
THIEF RVR FALL CLEAR     46  32  57 W12       29.92R
CROOKSTON      CLEAR     48  36  61 NW14      29.95R
FOSSTON        CLEAR     39  30  70 SW5       29.94R
DETROIT LAKES  CLEAR     50  32  50 NW14      29.97R
MOORHEAD       PTCLDY    52  30  43 W9        29.99R
PARK RAPIDS    CLEAR     51  32  48 NW16      29.92R
MAHNOMEN       FAIR      48  33  55 W16       29.94R
$$
MNZ006-009>011-018-025>026-250800-
   North Central Minnesota

CITY           SKY/WX    TMP DP  RH WIND       PRES   REMARKS
BAUDETTE       CLEAR     50  32  50 NW8G17    29.81R
FLAG ISLAND    CLEAR     50  36  57 W23G31    29.77R
INTL FALLS     CLEAR     51  32  48 W16G25    29.77R
WASKISH        CLEAR     52  39  62 W13G18    29.85R
BIG FORK       CLEAR     54  32  43 W8G20     29.83R
LONGVILLE      CLEAR     54  34  47 W9G17     29.88R
GRAND RAPIDS   CLEAR     54  34  47 W13G18    29.84R
CRANE LAKE     CLEAR     52  30  43 W7G22     29.76R
ORR            CLEAR     52  30  43 W16       29.75R
COOK           CLEAR     52  34  50 W15       29.79R
WALKER         FAIR      52  32  45 W9G18     29.88R
$$
MNZ012-019>021-037-250800-
   Northeast Minnesota

CITY           SKY/WX    TMP DP  RH WIND       PRES   REMARKS
DULUTH         CLEAR     55  34  45 W14       29.80R
ELY            CLEAR     54  32  43 W12G18    29.74S
HIBBING        CLEAR     55  32  41 W10G24    29.80R
EVELETH        CLEAR     52  32  46 W8        29.80R
DULUTH HARBOR  CLEAR     57  39  51 SW8       29.81R
TWO HARBORS    CLEAR     57  23  26 W9        29.75R
SILVER BAY     CLEAR     57  34  41 W5        29.73R
GRAND MARAIS     N/A     57  36  45 W7        29.67R
G MARAIS ARPRT CLEAR     52  32  46 W10G21    29.69R
$$
MNZ029>031-032-039>041-046>048-054>057-064-250800-
   West Central Minnesota

CITY           SKY/WX    TMP DP  RH WIND       PRES   REMARKS
FERGUS FALLS   PTCLDY    52  28  40 NW10      29.99R
WHEATON        CLOUDY    54  36  50 W10       30.03R
MORRIS         MOCLDY    57  36  44 NW15      29.99R
ALEXANDRIA     CLEAR     54  34  46 W12       29.98R
ELBOW LAKE     CLOUDY    51  35  54 NW8       29.98R
WADENA         CLEAR     52  34  50 W8        29.94R
GLENWOOD       CLEAR     52  36  54 W9        29.97R
APPLETON       MOCLDY    57  37  47 NW10      30.01R
BENSON         MOCLDY    54  37  54 NW8       30.00R
ORTONVILLE     MOCLDY    57  36  44 NW9       30.03R
MADISON        CLOUDY    57  39  51 NW7       30.02R
WILLMAR        FAIR      54  39  58 W8        30.00R
$$
MNZ033>034-036-042>043-049>051-058-059-250800-
   Central Minnesota

CITY           SKY/WX    TMP DP  RH WIND       PRES   REMARKS
ST CLOUD       PTCLDY    58  36  43 W12       29.93R
SAUK CENTRE    FAIR      50  34  55 W6        29.96R
PAYNESVILLE    PTCLDY    51  35  52 SW8       29.97R
AITKIN         CLEAR     55  34  44 W5        29.87R
PINE RIVER     CLEAR     54  36  50 W6        29.94R
BRAINERD       CLEAR     52  33  48 W8        29.92R
STAPLES        CLEAR     52  32  46 W10       29.94R
LONG PRAIRIE   FAIR      54  32  43 W9        29.96R
LITTLE FALLS   CLEAR     54  32  43 NW6       29.93R
LITCHFIELD     MOCLDY    59  36  41 W6        29.97R
BUFFALO        PTCLDY    59  37  43 W8        29.95R
MAPLE LAKE     MOCLDY    58  40  52 W7        29.95R
$$
MNZ037-044-045-052-053-250800-
   East Central Minnesota

CITY           SKY/WX    TMP DP  RH WIND       PRES   REMARKS
PRINCETON      PTCLDY    54  39  58 W5        29.92R
MORA           CLEAR     54  34  47 W8        29.91R
CAMBRIDGE      CLEAR     55  41  58 W3        29.89R
RUSH CITY      MOCLDY    49  40  69 W3        29.89R
MOOSE LAKE     CLEAR     54  34  47 W7        29.84S
HINCKLEY       FAIR      55  36  47 W3        29.88R
CLOQUET        CLEAR     54  32  43 W8        29.83R
MCGREGOR       CLEAR     54  34  47 W6        29.87R
$$
MNZ071>073-080-081-089-090-097-098-250800-
   Southwest Minnesota

CITY           SKY/WX    TMP DP  RH WIND       PRES   REMARKS
MONTEVIDEO     CLOUDY    55  41  58 NW7       30.02R
GRANITE FALLS  CLOUDY    54  42  64 W8        30.02R
CANBY          CLOUDY    58  38  48 NW7       30.04R
MARSHALL       CLOUDY    55  39  54 NW12      30.01R
REDWOOD FALLS  MOCLDY    58  40  51 NW10      29.99R
OLIVIA         MOCLDY    54  41  62 W9        29.99R
PIPESTONE      MOCLDY    52  41  66 CALM      30.04R
WINDOM         PTCLDY    57  37  47 NW10      30.01R
WORTHINGTON    MOCLDY    55  39  54 NW6       30.03S
JACKSON        PTCLDY    54  39  58 NW7       30.02R
TRACY          MOCLDY    60  40  47 NW9       30.02R
SLAYTON        PTCLDY    52  41  67 CALM      30.04R
$$
MNZ065>067-074>077-082>085-091>093-250800-
   South Central Minnesota

CITY           SKY/WX    TMP DP  RH WIND       PRES   REMARKS
MANKATO        PTCLDY    55  37  50 NW9       29.97R
NEW ULM        PTCLDY    52  43  71 NW6       29.98R
ST JAMES       PTCLDY    57  41  54 W8        30.00R
FAIRMONT       PTCLDY    57   3  11 NW9       29.99S
GLENCOE        MOCLDY    58  43  56 W9        29.96R
FARIBAULT      PTCLDY    55  45  67 W6        29.95R
OWATONNA       CLEAR     48  43  81 CALM      29.95R
WASECA         PTCLDY    43  37  81 W5        29.97R
ALBERT LEA     PTCLDY    55  43  62 W5        29.96S
$$
MNZ078>079-086>088-094>096-250800-
   Southeast Minnesota

CITY           SKY/WX    TMP DP  RH WIND       PRES   REMARKS
ROCHESTER      CLEAR     52  47  83 W8        29.94R
RED WING         N/A     46  45  93 W3        29.91R FOG
STANTON        CLEAR     56  44  65 W8        29.93R
DODGE CENTER   PTCLDY    52  45  76 W9        29.94R
WINONA         CLEAR     54  52  94 N7        29.91R FOG
AUSTIN         FAIR      50  50 100 W7        29.95R
PRESTON        CLEAR     53  48  86 W13       29.93R
$$
ABBREVIATIONS USED IN REMARKS
   TC - TEMPERATURES IN CELSIUS
  WCI - WIND CHILL INDEX
   HX - HEAT INDEX
  VSB - VISIBILITY
$$



USA.gov is the U.S. government's official web portal to all federal, state and local government web resources and services.